User: anonymous   Login
Location: Caltech
(34.1382°N, 118.1253°W)
Time: 20:31:13
(UTC-08:00)
Language:

Sapphire - Orbit

View from above orbital plane
View from above orbital plane
View from above satellite
View from above satellite

Ground track
Ground track

The orbit data is extracted from the following two-line orbital elements,

1 26932U 01043D   17055.07182174 -.00000047  00000-0  13794-4 0  9998
2 26932  67.0570  25.2213 0006750 294.1322  65.9073 14.30240073804191
Epoch (UTC): 24 February 2017 01:43:25
Eccentricity: 0.0006750
inclination: 67.0570°
perigee height: 786 km
apogee height: 796 km
right ascension of ascending node: 25.2213°
argument of perigee: 294.1322°
revolutions per day: 14.30240073
mean anomaly at epoch: 65.9073°
orbit number at epoch: 80419

The dashed part of the orbit path shows where the satellite is in the earth's shadow,  

DLR